Regional Weather Roundup
Issued by NWS

Home | Current Version | Previous Version | Graphics & Text | Print | Product List | Glossary Off
Versions: 1 2 3 4 5 6 7 8 9 10 11 12 13 14 15 16 17 18 19 20 21 22 23 24 25 26 27 28 29 30 31 32 33 34 35 36 37 38 39 40 41 42 43 44 45 46 47 48 49 50

000
ASUS43 KMKX 011559
RWRWI

WISCONSIN REGIONAL WEATHER ROUNDUP
NATIONAL WEATHER SERVICE MILWAUKEE/SULLIVAN WI
1100 AM CDT WED APR 01 2015

NOTE: "FAIR" INDICATES FEW OR NO CLOUDS BELOW 12,000 FEET WITH NO
SIGNIFICANT WEATHER AND/OR OBSTRUCTIONS TO VISIBILITY.

WIZ001-002-006>008-014>016-023>028-011700-
NORTHWEST WISCONSIN

CITY           SKY/WX    TMP DP  RH WIND       PRES   REMARKS
SUPERIOR ARPT  CLOUDY    34  32  94 NE13G20   29.78F WCI  25
ASHLAND        MOSUNNY   44  35  70 NE6       29.81F
HAYWARD        MOSUNNY   51  32  48 S14G21    29.78F
SIREN          PTSUNNY   53  32  45 SE16G22   29.73F
CUMBERLAND     SUNNY     50  32  50 SE16      29.78F
RICE LAKE      SUNNY     52  32  45 SE16G25   29.82F
CHETEK         SUNNY     52  33  47 SE15G24   29.82F
LADYSMITH      MOSUNNY   49  32  51 SE15G25   29.87F
EAU CLAIRE     NOT AVBL
MENOMONIE      MOSUNNY   55  32  41 SE15      29.82F
NEW RICHMOND   PTSUNNY   55  33  41 S16       29.75F
OSCEOLA        CLOUDY    56  34  43 SE12      29.76F
$$

WIZ003>005-009-010-017-018-011700-
NORTH CENTRAL WISCONSIN

CITY           SKY/WX    TMP DP  RH WIND       PRES   REMARKS
MANITOWISH WTR CLOUDY    41  31  68 S12       29.90F
ARBOR VITAE    CLOUDY    42  32  70 S12       29.91F
WOODRUFF       CLOUDY    42  32  70 S12       29.91F
RHINELANDER    CLOUDY    43  31  62 SE14G21   29.94F
EAGLE RIVER    PTSUNNY   40  29  65 S9        29.94F WCI  34
LAND O LAKES   CLOUDY    40  30  69 SE9       29.94S WCI  33
PHILLIPS       PTSUNNY   47  31  53 S16       29.88F
TOMAHAWK       PTSUNNY   45  32  60 SE6       29.94F
MEDFORD        PTSUNNY   46  34  62 SE13G22   29.91F
MERRILL        MOSUNNY   44  33  67 SE13      29.96F
$$

WIZ029-030-035-036-043>047-011700-
CENTRAL WISCONSIN

CITY           SKY/WX    TMP DP  RH WIND       PRES   REMARKS
WAUSAU         MOSUNNY   48  33  56 SE15      29.94F
MOSINEE        NOT AVBL
MARSHFIELD     MOSUNNY   53  32  44 SE14G22   29.92F
STEVENS POINT  MOSUNNY   45  31  58 SE8G18    29.98F
WAUPACA        MOSUNNY   50  34  54 SE9       30.02F
WAUTOMA        NOT AVBL
WISC RAPIDS    MOSUNNY   55  29  36 SE14G20   29.95F
CAMP DOUGLAS   NOT AVBL
$$

WIZ011>013-019>022-031-037>040-048>050-011700-
NORTHEAST WISCONSIN

CITY           SKY/WX    TMP DP  RH WIND       PRES   REMARKS
ANTIGO         PTSUNNY   41  34  76 SE14G23   29.98F
SHAWANO        PTSUNNY   42  35  76 SE6       30.03F
OCONTO         CLOUDY    38  32  79 CALM      30.06F
STURGEON BAY   CLOUDY    37  30  75 E6        30.08S WCI  33
GREEN BAY      PTSUNNY   44  36  73 SE9       30.04F
MANITOWOC      NOT AVBL
APPLETON       MOSUNNY   45  32  61 SE9       30.04S
CLINTONVILLE   CLOUDY    41  32  70 SE6       30.03F
OSHKOSH        MOSUNNY   52  34  50 E13       30.01F
$$

WIZ032>034-041-042-053>061-011700-
SOUTHWEST WISCONSIN

CITY           SKY/WX    TMP DP  RH WIND       PRES   REMARKS
LA CROSSE      SUNNY     61  33  35 S14       29.86F
SPARTA         SUNNY     60  30  31 S12G17    29.91F
VIROQUA        SUNNY     57  33  40 SE13G18   29.90F
BOSCOBEL       SUNNY     63  34  33 S7        29.92F
PRAIRIE DU CHI SUNNY     61  32  33 S3        29.90F
PLATTEVILLE    SUNNY     62  35  36 SE13      29.95F
$$

WIZ056-057-062-063-064-067-068-011700-
SOUTH CENTRAL WISCONSIN

CITY           SKY/WX    TMP DP  RH WIND       PRES   REMARKS
REEDSBURG      SUNNY     55  34  46 SE7       29.96F
BARABOO/DELLS  SUNNY     55  32  42 SE10      29.97F
LONE ROCK      NOT AVBL
MINERAL POINT  SUNNY     59  32  36 SE13      29.95F
MADISON        MOSUNNY   57  35  43 SE10      29.99F
MIDDLETON      SUNNY     55  35  47 E8        30.00F
WATERTOWN      SUNNY     55  35  48 S8        30.02S
MONROE         SUNNY     59  37  44 SE7       29.98F
JANESVILLE     SUNNY     59  37  44 SE7       30.01S
$$

WIZ051-052-058>065-066-070>072-011700-
SOUTHEAST WISCONSIN

CITY           SKY/WX    TMP DP  RH WIND       PRES   REMARKS
MILWAUKEE      MOSUNNY   49  33  54 SE10      30.07S
WAUKESHA       MOSUNNY   52  36  54 E9        30.05S
MILWAUKEE/TIMM SUNNY     48  30  49 SE9       30.06S
RACINE         MOSUNNY   49  34  56 SE9       30.07F
BURLINGTON     SUNNY     53  36  53 E5        30.04S
KENOSHA        SUNNY     52  38  58 E9        30.05F
FOND DU LAC    MOSUNNY   53  32  44 SE14      30.01F
SHEBOYGAN        N/A     44  34  67 MISG      30.06F
WEST BEND      CLOUDY    48  30  49 SE9       30.04F
JUNEAU         MOSUNNY   52  33  47 SE13      30.03F
$$

LSZ147-162-011700-
LAKE SUPERIOR

STATION/POSITION TIME  TEMP    WIND        PRES    WAVE
                       AIR SEA DIR/SP/G            HT/PER
                 (UTC) (F)     (DEG/KT/KT) (MB)    (FT/S)
DEVILS ISLAND    1500   32      90/ 14/ 15 1012.1F
PORT WING        1500   34      30/ 14/ 15 1010.2F
SAXON HARBOR     1520   38        CALM     1010.8F
$$

LMZ867-665-643>646-011700-
LAKE MICHIGAN

STATION/POSITION TIME  TEMP    WIND        PRES    WAVE
                       AIR SEA DIR/SP/G            HT/PER
                 (UTC) (F)     (DEG/KT/KT) (MB)    (FT/S)
NORTHPORT PIER   1502   31     110/  3/  5 1018.6R
SISTER BAY       1502   42     170/ 10/ 12   N/A
KEWAUNEE LAKESHO 1500   36     110/  1/  3 1017.6R
SHEBOYGAN LAKESH 1500   36     100/  2/  2 1019.2R
PORT WASHINGTON  1540   41     160/  4/  5 1018.6F
MILWAUKEE LAKESH 1500   39      40/  2/  3   N/A
KENOSHA   LAKESH 1500   39      60/  3/  3 1018.3R
$$

TC  - TEMPERATURE IN CELSIUS
VSB - VISIBILITY IN STATUTE MILES
WCI - WIND CHILL INDEX
HX  - HEAT INDEX



USA.gov is the U.S. government's official web portal to all federal, state and local government web resources and services.